Weather History for K20U - October, 2011

Change the Weather History Date:

Saturday, October 22, 2011

  Actual Average (KGDV) Record (KGDV)
Temperature  
Mean Temperature 48 °F -  
Max Temperature 64 °F 51 °F 69 °F (1998)
Min Temperature 33 °F 30 °F 6 °F (2002)
Degree Days  
Heating Degree Days 16    
Moisture  
Dew Point 34 °F    
Average Humidity 66    
Maximum Humidity 100    
Minimum Humidity 27    
Precipitation  
Precipitation 0.00 in - - ()
Sea Level Pressure  
Sea Level Pressure 29.98 in    
Wind  
Wind Speed 10 mph (WSW)    
Max Wind Speed 24 mph    
Max Gust Speed 34 mph    
Visibility 10 miles    
Events      
Averages and records for this station are not official NWS values.
T = Trace of Precipitation, MM = Missing Value Source: NWS Daily Summary

Daily Weather History Graph

Daily Weather History Graph

Search for Another Location

Airport or City:

Trip Planner

Search our weather history database for the weather conditions in past years. The results will help you decide how hot, cold, wet, or windy it might be!

Date:

Astronomy

Oct. 22, 2011 Rise Set
Actual Time 7:23 AM MDT 5:56 PM MDT
Civil Twilight 6:52 AM MDT 6:27 PM MDT
Nautical Twilight 6:17 AM MDT 7:02 PM MDT
Astronomical Twilight 5:41 AM MDT 7:38 PM MDT
Moon 2:05 AM MDT (10/22) 3:30 PM MDT (10/22)
Length of Visible Light 11h 35m
Length of Day
10h 32m
Waning Crescent, 23% of the Moon is Illuminated
Oct 22
Waning Crescent
Oct 26
New
Nov 2
First Quarter
Nov 10
Full
Nov 18
Last Quarter

Hourly Weather History & Observations

Time (MDT) Temp. Windchill Dew Point Humidity Pressure Visibility Wind Dir Wind Speed Gust Speed Precip Events Conditions
12:15 AM 37.4 °F - 33.8 °F 87% 30.07 in 8.0 mi Calm Calm - N/A   Mostly Cloudy
12:35 AM 37.4 °F 33.8 °F 33.8 °F 87% 30.06 in 10.0 mi SSE 4.6 mph - N/A   Scattered Clouds
1:15 AM 35.6 °F 31.7 °F 32.0 °F 87% 30.05 in 10.0 mi SSE 4.6 mph - N/A   Scattered Clouds
1:35 AM 33.8 °F 27.7 °F 32.0 °F 93% 30.05 in 10.0 mi South 6.9 mph - N/A   Scattered Clouds
1:55 AM 35.6 °F 30.7 °F 32.0 °F 87% 30.04 in 10.0 mi South 5.8 mph - N/A   Partly Cloudy
2:15 AM 35.6 °F 28.6 °F 32.0 °F 87% 30.04 in 10.0 mi SSW 9.2 mph - N/A   Mostly Cloudy
2:35 AM 35.6 °F 30.7 °F 33.8 °F 93% 30.03 in 10.0 mi South 5.8 mph - N/A   Scattered Clouds
2:55 AM 35.6 °F 30.7 °F 33.8 °F 93% 30.02 in 10.0 mi South 5.8 mph - N/A   Clear
3:15 AM 35.6 °F 29.2 °F 32.0 °F 87% 30.02 in 10.0 mi SSW 8.1 mph - N/A   Clear
3:35 AM 35.6 °F 30.7 °F 32.0 °F 87% 30.01 in 9.0 mi SSW 5.8 mph - N/A   Clear
3:55 AM 33.8 °F 29.6 °F 32.0 °F 93% 30.01 in 5.0 mi South 4.6 mph - N/A   Scattered Clouds
4:15 AM 35.6 °F 30.7 °F 35.6 °F 100% 30.01 in 10.0 mi South 5.8 mph - N/A   Partly Cloudy
4:35 AM 35.6 °F 29.9 °F 35.6 °F 100% 30.01 in 9.0 mi South 6.9 mph - N/A   Mostly Cloudy
5:15 AM 33.8 °F 27.0 °F 32.0 °F 93% 30.00 in 10.0 mi South 8.1 mph - N/A   Clear
5:35 AM 35.6 °F 29.2 °F 35.6 °F 100% 30.00 in 10.0 mi South 8.1 mph - N/A   Mostly Cloudy
5:55 AM 35.6 °F 29.9 °F 35.6 °F 100% 30.00 in 10.0 mi SSW 6.9 mph - N/A   Mostly Cloudy
6:15 AM 35.6 °F 29.2 °F 35.6 °F 100% 30.00 in 10.0 mi South 8.1 mph - N/A   Clear
6:35 AM 33.8 °F 27.0 °F 32.0 °F 93% 29.99 in 10.0 mi SSW 8.1 mph - N/A   Clear
6:55 AM 35.6 °F 28.0 °F 35.6 °F 100% 29.99 in 10.0 mi SSW 10.4 mph - N/A   Clear
7:15 AM 37.4 °F 30.8 °F 35.6 °F 93% 29.98 in 10.0 mi SSW 9.2 mph - N/A   Clear
7:35 AM 37.4 °F 30.3 °F 37.4 °F 100% 29.98 in 10.0 mi SSW 10.4 mph - N/A   Clear
7:55 AM 41.0 °F 33.9 °F 39.2 °F 93% 29.98 in 10.0 mi SW 12.7 mph - N/A   Clear
8:15 AM 44.6 °F 38.1 °F 39.2 °F 81% 29.99 in 10.0 mi SW 13.8 mph - N/A   Clear
8:35 AM 44.6 °F 37.8 °F 39.2 °F 81% 29.99 in 10.0 mi WSW 15.0 mph 18.4 mph N/A   Clear
8:55 AM 46.4 °F 40.4 °F 41.0 °F 81% 29.98 in 10.0 mi WSW 13.8 mph - N/A   Clear
9:15 AM 48.2 °F - 41.0 °F 76% 29.98 in 10.0 mi WSW 17.3 mph - N/A   Clear
9:35 AM 50.0 °F - 41.0 °F 71% 29.98 in 10.0 mi WSW 15.0 mph 19.6 mph N/A   Clear
9:55 AM 51.8 °F - 41.0 °F 67% 29.98 in 10.0 mi WSW 15.0 mph - N/A   Partly Cloudy
10:15 AM 55.4 °F - 39.2 °F 54% 29.98 in 10.0 mi West 16.1 mph 19.6 mph N/A   Mostly Cloudy
10:35 AM 53.6 °F - 39.2 °F 58% 29.98 in 10.0 mi West 18.4 mph - N/A   Overcast
10:55 AM 55.4 °F - 39.2 °F 54% 29.98 in 10.0 mi West 19.6 mph - N/A   Mostly Cloudy
11:15 AM 57.2 °F - 39.2 °F 51% 29.98 in 10.0 mi West 17.3 mph - N/A   Mostly Cloudy
11:35 AM 57.2 °F - 39.2 °F 51% 29.98 in 10.0 mi West 17.3 mph 25.3 mph N/A   Overcast
11:55 AM 57.2 °F - 39.2 °F 51% 29.98 in 10.0 mi West 16.1 mph 23.0 mph N/A   Overcast
12:15 PM 59.0 °F - 37.4 °F 45% 29.98 in 10.0 mi West 18.4 mph 23.0 mph N/A   Mostly Cloudy
12:35 PM 59.0 °F - 37.4 °F 45% 29.97 in 10.0 mi WNW 18.4 mph 24.2 mph N/A   Overcast
12:55 PM 59.0 °F - 35.6 °F 42% 29.97 in 10.0 mi West 23.0 mph 26.5 mph N/A   Overcast
1:15 PM 60.8 °F - 35.6 °F 39% 29.96 in 10.0 mi West 20.7 mph 26.5 mph N/A   Mostly Cloudy
1:35 PM 62.6 °F - 33.8 °F 34% 29.96 in 10.0 mi WNW 19.6 mph 32.2 mph N/A   Partly Cloudy
1:55 PM 60.8 °F - 32.0 °F 34% 29.95 in 10.0 mi WNW 20.7 mph 31.1 mph N/A   Scattered Clouds
2:15 PM 62.6 °F - 28.4 °F 27% 29.95 in 10.0 mi WNW 24.2 mph 34.5 mph N/A   Scattered Clouds
2:35 PM 64.4 °F - 30.2 °F 28% 29.94 in 10.0 mi WNW 24.2 mph 33.4 mph N/A   Partly Cloudy
2:55 PM 62.6 °F - 32.0 °F 32% 29.94 in 10.0 mi WNW 23.0 mph 32.2 mph N/A   Partly Cloudy
3:15 PM 62.6 °F - 28.4 °F 27% 29.93 in 10.0 mi WNW 23.0 mph 33.4 mph N/A   Clear
3:35 PM 62.6 °F - 30.2 °F 30% 29.94 in 10.0 mi NW 24.2 mph 29.9 mph N/A   Clear
3:55 PM 62.6 °F - 28.4 °F 27% 29.94 in 10.0 mi NW 21.9 mph 31.1 mph N/A   Partly Cloudy
4:15 PM 62.6 °F - 30.2 °F 30% 29.93 in 10.0 mi NW 20.7 mph 28.8 mph N/A   Partly Cloudy
4:35 PM 60.8 °F - 30.2 °F 31% 29.93 in 10.0 mi NW 18.4 mph 28.8 mph N/A   Clear
4:55 PM 59.0 °F - 28.4 °F 31% 29.93 in 10.0 mi NW 17.3 mph 24.2 mph N/A   Clear
5:15 PM 57.2 °F - 28.4 °F 33% 29.94 in 10.0 mi NW 11.5 mph 21.9 mph N/A   Partly Cloudy
5:35 PM 55.4 °F - 28.4 °F 36% 29.94 in 10.0 mi NW 10.4 mph - N/A   Partly Cloudy
5:55 PM 51.8 °F - 28.4 °F 41% 29.94 in 10.0 mi NW 8.1 mph - N/A   Partly Cloudy
6:15 PM 50.0 °F - 28.4 °F 43% 29.94 in 10.0 mi WNW 9.2 mph - N/A   Clear
6:35 PM 50.0 °F - 28.4 °F 43% 29.94 in 10.0 mi WNW 10.4 mph - N/A   Clear
6:55 PM 50.0 °F - 28.4 °F 43% 29.94 in 10.0 mi WNW 8.1 mph - N/A   Clear
7:15 PM 48.2 °F - 28.4 °F 46% 29.93 in 10.0 mi West 8.1 mph - N/A   Clear
7:35 PM 46.4 °F 42.4 °F 28.4 °F 50% 29.93 in 10.0 mi West 8.1 mph - N/A   Clear
7:55 PM 46.4 °F 43.5 °F 28.4 °F 50% 29.92 in 10.0 mi West 5.8 mph - N/A   Clear
8:15 PM 44.6 °F 42.2 °F 30.2 °F 57% 29.92 in 10.0 mi SW 4.6 mph - N/A   Clear
8:35 PM 44.6 °F 40.2 °F 30.2 °F 57% 29.91 in 10.0 mi SW 8.1 mph - N/A   Clear
8:55 PM 44.6 °F 41.4 °F 30.2 °F 57% 29.90 in 10.0 mi WSW 5.8 mph - N/A   Clear
9:15 PM 42.8 °F 41.1 °F 30.2 °F 61% 29.91 in 10.0 mi SW 3.5 mph - N/A   Clear
9:35 PM 44.6 °F - 30.2 °F 57% 29.91 in 10.0 mi Calm Calm - N/A   Mostly Cloudy
9:55 PM 46.4 °F 41.5 °F 32.0 °F 57% 29.90 in 10.0 mi SW 10.4 mph - N/A   Overcast
10:15 PM 46.4 °F 42.4 °F 32.0 °F 57% 29.90 in 10.0 mi WSW 8.1 mph - N/A   Overcast
10:35 PM 46.4 °F 41.5 °F 32.0 °F 57% 29.90 in 10.0 mi WSW 10.4 mph - N/A   Overcast
10:55 PM 50.0 °F - 32.0 °F 50% 29.92 in 9.0 mi WNW 15.0 mph 25.3 mph N/A Rain Light Rain
11:15 PM 50.0 °F - 32.0 °F 50% 29.92 in 10.0 mi West 9.2 mph - N/A   Overcast
11:35 PM 50.0 °F - 35.6 °F 58% 29.90 in 10.0 mi WNW 9.2 mph - N/A   Overcast
11:55 PM 48.2 °F - 35.6 °F 62% 29.89 in 10.0 mi NW 6.9 mph - N/A   Overcast